Weather History for Eureka, NV

Change the Weather History Date:

Monday, January 21, 2013

  Actual Average Record
Temperature  
Mean Temperature 17 °F 24 °F  
Max Temperature 37 °F 38 °F 60 °F (1994)
Min Temperature -3 °F 11 °F -12 °F (1966)
Degree Days  
Heating Degree Days 48 41  
Month to date heating degree days 1129 876  
Since 1 July heating degree days 3617 3882  
Cooling Degree Days 0 0  
Month to date cooling degree days 0 0  
Year to date cooling degree days 0 0  
Moisture  
Dew Point 3 °F    
Average Humidity 61    
Maximum Humidity 87    
Minimum Humidity 35    
Precipitation  
Precipitation 0.00 in 0.03 in 0.13 in (2010)
Month to date precipitation 0.19 0.50  
Year to date precipitation 0.19 0.50  
Sea Level Pressure  
Sea Level Pressure 30.54 in    
Wind  
Wind Speed 4 mph (SSW)    
Max Wind Speed 12 mph    
Max Gust Speed 12 mph    
T = Trace of Precipitation, MM = Missing Value Source: NWS Daily Summary

Daily Weather History Graph

Daily Weather History Graph

Search for Another Location

Airport:

Trip Planner

Search our weather history database for the weather conditions in past years. The results will help you decide how hot, cold, wet, or windy it might be!

Date:

Astronomy

Jan. 21, 2013 Rise Set
Actual Time 6:59 AM PST 4:51 PM PST
Civil Twilight 6:30 AM PST 5:20 PM PST
Nautical Twilight 5:57 AM PST 5:53 PM PST
Astronomical Twilight 5:25 AM PST 6:25 PM PST
Moon 12:34 PM PST (1/21) 2:32 AM PST (1/21)
Length of Visible Light 10h 49m
Length of Day
9h 51m
Waxing Gibbous, 76% of the Moon is Illuminated
Jan 21
Waxing Gibbous
Jan 26
Full
Feb 3
Last Quarter
Feb 9
New
Feb 17
First Quarter

Hourly Weather History & Observations

Time (PST) Temp. Windchill Dew Point Humidity Pressure Visibility Wind Dir Wind Speed Gust Speed Precip Events Conditions
12:53 AM 3.9 °F -11.3 °F -0.9 °F 80% 30.54 in - SW 10.4 mph - N/A   Unknown
1:53 AM 1.0 °F -12.9 °F -2.9 °F 83% 30.55 in - SSW 8.1 mph - N/A   Unknown
2:53 AM 1.0 °F -11.7 °F -4.0 °F 79% 30.53 in - SW 6.9 mph - N/A   Unknown
3:53 AM 1.0 °F -6.7 °F -2.9 °F 83% 30.52 in - South 3.5 mph - N/A   Unknown
4:53 AM 1.0 °F -8.7 °F -2.9 °F 83% 30.57 in - WSW 4.6 mph - N/A   Unknown
5:53 AM -0.9 °F -11.0 °F -6.0 °F 79% 30.64 in - South 4.6 mph - N/A   Unknown
6:53 AM 1.9 °F -11.8 °F -2.9 °F 80% 30.64 in - SSW 8.1 mph - N/A   Unknown
7:53 AM 3.9 °F -5.3 °F -0.9 °F 80% 30.67 in - SW 4.6 mph - N/A   Unknown
8:53 AM 14.0 °F 5.1 °F 5.0 °F 67% 30.63 in - SSW 5.8 mph - N/A   Unknown
9:53 AM 19.0 °F 13.9 °F 6.1 °F 57% 30.61 in - North 3.5 mph - N/A   Unknown
10:53 AM 23.0 °F - 9.0 °F 55% 30.58 in - Calm Calm - N/A   Unknown
11:53 AM 30.0 °F - 10.9 °F 45% 30.53 in - Calm Calm - N/A   Unknown
12:53 PM 30.0 °F 25.2 °F 12.9 °F 49% 30.50 in - ENE 4.6 mph - N/A   Unknown
1:53 PM 34.0 °F - 12.0 °F 40% 30.46 in - Calm Calm - N/A   Unknown
2:53 PM 35.1 °F 31.0 °F 12.0 °F 39% 30.45 in - NE 4.6 mph - N/A   Unknown
3:53 PM 35.1 °F - 10.9 °F 37% 30.44 in - Calm Calm - N/A   Unknown
4:53 PM 21.0 °F - 9.0 °F 60% 30.49 in - Calm Calm - N/A   Unknown
5:53 PM 10.0 °F 3.6 °F 3.0 °F 73% 30.57 in - ESE 3.5 mph - N/A   Unknown
6:53 PM 7.0 °F -1.7 °F 1.9 °F 80% 30.57 in - SSW 4.6 mph - N/A   Unknown
7:53 PM 8.1 °F 1.4 °F 1.9 °F 76% 30.56 in - SSE 3.5 mph - N/A   Unknown
8:53 PM 5.0 °F -5.6 °F -0.0 °F 80% 30.52 in - SSW 5.8 mph - N/A   Unknown
9:53 PM 1.0 °F -8.7 °F -2.0 °F 87% 30.54 in - SW 4.6 mph - N/A   Unknown
10:53 PM 10.9 °F 1.4 °F 5.0 °F 77% 30.48 in - SSW 5.8 mph - N/A   Unknown
11:53 PM 7.0 °F -4.5 °F 1.9 °F 80% 30.47 in - WSW 6.9 mph - N/A   Unknown